Location: Eboldshausen
(51.7766°N, 10.0050°E)
Time: 17:30:36
(UTC+00:00)

AQUARIUS - Pass Details

Date: 15 November 2025
Orbit: 634 x 636 km, 98.0° (Epoch: 09 December)

Event Time Altitude Azimuth Distance (km) Brightness Sun altitude
Rises 16:36:38 0° 154° (SSE) 2,925 7.4 -10.4°
Reaches altitude 10° 16:38:50 10° 151° (SSE) 2,021 6.6 -10.7°
Maximum altitude 16:43:11 63° 72° (ENE) 715 4.1 -11.3°
Drops below altitude 10° 16:47:33 10° 351° (N) 2,034 6.6 -12.0°
Sets 16:49:47 0° 349° (NNW) 2,947 7.5 -12.3°
